This demonstration page uses our WeatherBlox Daily Observations layout. Learn more.

Left ArrowRight Arrow

39.01783, -85.05884

Hourly Observations for December 7, 2022

Temp ( °F °C ) Dew Point ( °F °C ) Humidity (%) Winds ( mph kmh ) Pressure ( in mb ) Visibility ( mi km ) Precip ( " mm )
12:52 am 00:52 Cloudy with Mist and Fog 52 11.1 52 11.1 100 100 NW 6 9 30.01 1016 4 6 0.02 0.51
1:52 am 01:52 Cloudy 52 11.1 52 11.1 100 100 NNW 6 9 30.01 1016 8 13 0.00 0.00
2:01 am 02:01 Cloudy with Mist and Fog 52 11.1 52 11.1 100 100 NNW 5 7 30.03 1017 5 8 0.00 0.00
2:16 am 02:16 Cloudy with Mist and Fog 52 11.1 52 11.1 100 100 NW 7 11 30.05 1018 2 3 0.00 0.00
2:52 am 02:52 Cloudy with Mist and Fog 51 10.6 51 10.6 100 100 Calm 30.04 1017 1 2 0.00 0.00
3:06 am 03:06 Cloudy with Mist and Fog 51 10.6 51 10.6 100 100 Calm 30.06 1018 1 2 0.00 0.00
3:18 am 03:18 Cloudy with Fog 51 10.6 51 10.6 100 100 Calm 30.06 1018 1 1 0.00 0.00
3:26 am 03:26 Cloudy with Mist and Fog 51 10.6 51 10.6 100 100 Calm 30.06 1018 1 2 0.00 0.00
3:52 am 03:52 Mostly Clear with Fog 51 10.6 51 10.6 100 100 Calm 30.04 1017 1 1 0.00 0.00
4:52 am 04:52 Mostly Clear with Fog 51 10.6 51 10.6 100 100 VRB 3 6 30.07 1018 1 1 0.00 0.00
5:29 am 05:29 Mostly Clear with Fog 51 10.6 51 10.6 100 100 WNW 6 9 30.10 1019 0 0 0.00 0.00
5:52 am 05:52 Mostly Clear with Fog 51 10.6 51 10.6 100 100 Calm 30.09 1019 0 0 0.00 0.00
6:52 am 06:52 Cloudy with Fog 50 10 50 10 100 100 WSW 3 6 30.11 1020 0 0 0.00 0.00
7:03 am 07:03 Cloudy with Fog 50 10 50 10 100 100 Calm 30.12 1020 1 1 0.00 0.00
7:52 am 07:52 Cloudy with Fog 50 10 50 10 100 100 NNW 5 7 30.11 1020 1 1 0.00 0.00
7:54 am 07:54 Cloudy with Fog 50 10 50 10 100 100 NNW 3 6 30.13 1020 0 0 0.00 0.00
8:52 am 08:52 Cloudy with Mist and Fog 51 10.6 51 10.6 100 100 NW 6 9 30.15 1021 0 0 0.00 0.00
9:24 am 09:24 Cloudy with Mist and Fog 50 10 50 10 100 100 WNW 5 7 30.18 1022 0 0 0.00 0.00
9:52 am 09:52 Cloudy with Mist and Fog 51 10.6 51 10.6 100 100 W 5 7 30.17 1022 1 2 0.00 0.00
10:14 am 10:14 Cloudy with Mist and Fog 51 10.6 51 10.6 100 100 WNW 3 6 30.19 1022 3 4 0.00 0.00
10:52 am 10:52 Cloudy with Mist and Fog 51 10.6 50 10 96 96 W 5 7 30.18 1022 4 6 0.00 0.00
11:14 am 11:14 Cloudy 52 11.1 51 10.6 97 97 W 5 7 30.20 1023 7 11 0.00 0.00
11:52 am 11:52 Cloudy with Mist and Fog 52 11.1 50 10 93 93 NW 8 13 30.19 1022 6 10 0.00 0.00
12:52 pm 12:52 Cloudy with Mist and Fog 52 11.1 50 10 93 93 NNW 7 11 30.19 1022 6 10 0.00 0.00
1:52 pm 13:52 Cloudy 51 10.6 49 9.4 92 92 NW 7 11 30.19 1022 7 11 0.00 0.00
2:52 pm 14:52 Cloudy with Mist and Fog 51 10.6 49 9.4 92 92 NW 7 11 30.20 1023 6 10 0.00 0.00
3:52 pm 15:52 Cloudy 50 10 48 8.9 93 93 NW 7 11 30.22 1023 8 13 0.00 0.00
4:52 pm 16:52 Cloudy with Mist and Fog 50 10 48 8.9 93 93 NNW 8 13 30.25 1025 6 10 0.00 0.00
5:15 pm 17:15 Cloudy 50 10 48 8.9 93 93 N 6 9 30.27 1025 7 11 0.00 0.00
5:52 pm 17:52 Cloudy 50 10 48 8.9 93 93 NNW 3 6 30.27 1025 8 13 0.00 0.00
6:52 pm 18:52 Cloudy 49 9.4 47 8.3 93 93 N 6 9 30.28 1025 8 13 0.00 0.00
7:52 pm 19:52 Cloudy 49 9.4 47 8.3 93 93 N 3 6 30.30 1026 7 11 0.00 0.00
8:39 pm 20:39 Cloudy 48 8.9 46 7.8 93 93 N 7 11 30.32 1027 7 11 0.00 0.00
8:52 pm 20:52 Cloudy with Mist and Fog 48 8.9 45 7.2 89 89 N 8 13 30.31 1027 6 10 0.00 0.00
9:52 pm 21:52 Cloudy with Mist and Fog 47 8.3 45 7.2 93 93 NNW 6 9 30.32 1027 5 8 0.00 0.00
10:52 pm 22:52 Cloudy with Mist and Fog 46 7.8 44 6.7 93 93 N 6 9 30.33 1027 5 8 0.00 0.00
11:52 pm 23:52 Cloudy with Mist and Fog 47 8.3 43 6.1 86 86 NE 8 13 30.32 1027 6 10 0.00 0.00

Powered by AerisWeather